Погода в Караджабее

Турция     40°13′00″N   28°21′13″E
темп.,
°C
ветер,
м/с
пор.,
м/с
влажн.,
%
обл.,
%
осадки,
мм/ч
давл.,
гПа
погр.,
м
13 апреля, вт
вт1300:00+6в11693 0.0 102211
03:00+5вюв11810 0.0 102111
06:00+5вюв11860 0.0 102112
09:00+10ююв22703 0.0 1021190
12:00+16ююв22515 0.0 1019649
15:00+19юз2343100 0.0 10171232
18:00+18ссв1158100 0.0 101565
21:00+13св1178100 0.3 101610
14 апреля, ср
ср1400:00+13юв2278100 0.1 101536
03:00+12ююз287233 0.1 1014199
06:00+9ююз118310 0.2 101415
09:00+14ююз412655 0.2 1015605
12:00+19юз710495 0.0 10141391
15:00+21юз7104214 0.0 10122523
18:00+18зюз610620 0.2 1012748
21:00+13юз410760 0.4 1014259
15 апреля, чт
чт1500:00+9ссв349413 0.8 101685
03:00+8св11965 0.8 101620
06:00+7ссв21958 0.0 101719
09:00+12ссв118399 0.0 1017339
12:00+15с226992 0.0 1016912
15:00+18ссз335971 0.1 10151193
18:00+13с347562 0.9 1015404
21:00+9ссв3491100 1.0 1016134
16 апреля, пт
пт1600:00+8с349488 0.0 101693
03:00+8с2494100 0.0 1017116
06:00+9ссв2490100 0.0 1017319
09:00+9ссв228487 0.0 1018506
12:00+12ссв327186 0.0 1019955
15:00+14ссв226355 0.1 10181029
18:00+13ссв3364100 0.0 1018613
21:00+9ссв2280100 0.0 101917
17 апреля, сб
сб1700:00+7св118821 0.0 101911
03:00+7св1189100 0.0 101813
06:00+7всв0189100 0.0 101715
09:00+9ссз1287100 0.4 1018104
12:00+11св2284100 1.0 1017319
15:00+9ссв2494100 4.5 1016235
18:00+10ссв239244 2.1 1015297
21:00+7ссв239613 2.1 101576